星链-4661 (STARLINK-4661 )

导读

STARLINK-4661是美国SpaceX星链(Starlink)星座中的互联网卫星,于2022年9月5日发射入轨。星链星座旨在为全球尤其是基础设施匮乏地区提供高速低延迟宽带互联网服务,该卫星运行在近地轨道,属于星链网络的组网卫星,助力扩展星座全球覆盖能力,为用户提供稳定的互联网接入服务。

Basic Information
目录编号:
53732
目录名称:
STARLINK-4661
国际标识:
2022-107AJ
轨道中心:
EARTH
卫星名称:
星链-4661
卫星全名:
星链-4661 (STARLINK-4661 )
卫星状态:
在轨 (已飞行1381 天)
发射日期:
2022-09-05 UTC
国别 :
美国 (US)
星等 :
--
Orbit Information
数据来源 国际轨道数据 AOE轨道数据
星历时间 2026-06-17T01:26:22+0800
15小时前
查看轨道信息
2026-06-16T05:00:00+0800
1天前
查看轨道信息
半长轴 6917.926km 6917.919km
偏心率 0.0002009 0.0002063
轨道倾角 53.159° 53.159°
近地点辐角 90.909° 84.769°
升交点赤经 169.516° 173.345°
平近点角 269.213° 326.893°
近地点 538.399km 538.354km
远地点 541.179km 541.21km
周期 95.438分钟 95.438分钟
每日圈数 15.088254 15.088274
Detailed Information
固有亮度:
5
最大亮度:
2.5
卫星平台:
Starlink v1.5
覆盖范围:
全球
运营商:
太空探索技术公司
运营商所在国:
美国
制造商(研发单位):
太空探索技术公司
制造商所在国:
美国
使用方式:
暂无
Satellite Introduction
星链(Starlink)计划是由太空探索技术公司(SpaceX)提出的一个巨型低轨卫星互联网星座项目,计划在2019年至2024年间在太空搭建由约1.2万颗卫星组成的“星链”网络,其中1584颗将部署在地球上空550千米处的近地轨道,并从2020年开始工作。该卫星仍在工作。
2D Orbit Map
3D Orbit Map
Orbit Altitude Analysis Chart
Orbit Inclination Analysis Chart
Orbit Comprehensive Analysis Chart
View Comprehensive Chart